Year,Month,Day,Hour,Minute,Value (Times are PST for temperature in C)
2013,01,21,11,00,1.30
2013,01,21,11,01,1.30
2013,01,21,11,02,1.40
2013,01,21,11,03,1.50
2013,01,21,11,04,1.50
2013,01,21,11,05,1.60
2013,01,21,11,06,1.70
2013,01,21,11,07,1.80
2013,01,21,11,08,1.80
2013,01,21,11,09,1.90
2013,01,21,11,10,2.00
2013,01,21,11,11,2.00
2013,01,21,11,12,2.10
2013,01,21,11,13,2.20
2013,01,21,11,14,2.20
2013,01,21,11,15,2.30
2013,01,21,11,16,2.30
2013,01,21,11,17,2.40
2013,01,21,11,18,2.40
2013,01,21,11,19,2.50
2013,01,21,11,20,2.60
2013,01,21,11,21,2.60
2013,01,21,11,22,2.70
2013,01,21,11,23,2.70
2013,01,21,11,24,2.80
2013,01,21,11,25,2.80
2013,01,21,11,26,2.80
2013,01,21,11,27,2.90
2013,01,21,11,28,2.90
2013,01,21,11,29,2.90
2013,01,21,11,30,3.00
2013,01,21,11,31,3.10
2013,01,21,11,32,3.10
2013,01,21,11,33,3.20
2013,01,21,11,34,3.30
2013,01,21,11,35,3.30
2013,01,21,11,36,3.30
2013,01,21,11,37,3.40
2013,01,21,11,38,3.40
2013,01,21,11,39,3.50
2013,01,21,11,40,3.50
2013,01,21,11,41,3.60
2013,01,21,11,42,3.70
2013,01,21,11,43,3.70
2013,01,21,11,44,3.70
2013,01,21,11,45,3.80
2013,01,21,11,46,3.80
2013,01,21,11,47,3.80
2013,01,21,11,48,3.90
2013,01,21,11,49,3.90
2013,01,21,11,50,3.90
2013,01,21,11,51,3.90
2013,01,21,11,52,4.00
2013,01,21,11,53,4.00
2013,01,21,11,54,4.00
2013,01,21,11,55,4.10
2013,01,21,11,56,4.10
2013,01,21,11,57,4.10
2013,01,21,11,58,4.10
2013,01,21,11,59,4.10
2013,01,21,12,00,4.20
2013,01,21,12,01,4.20
2013,01,21,12,02,4.20
2013,01,21,12,03,4.20
2013,01,21,12,04,4.20
2013,01,21,12,05,4.20
2013,01,21,12,06,4.30
2013,01,21,12,07,4.30
2013,01,21,12,08,4.30
2013,01,21,12,09,4.30
2013,01,21,12,10,4.30
2013,01,21,12,11,4.30
2013,01,21,12,12,4.30
2013,01,21,12,13,4.30
2013,01,21,12,14,4.30
2013,01,21,12,15,4.30
2013,01,21,12,16,4.30
2013,01,21,12,17,4.30
2013,01,21,12,18,4.30
2013,01,21,12,19,4.30
2013,01,21,12,20,4.30
2013,01,21,12,21,4.30
2013,01,21,12,22,4.30
2013,01,21,12,23,4.30
2013,01,21,12,24,4.30
2013,01,21,12,25,4.30
2013,01,21,12,26,4.30
2013,01,21,12,27,4.30
2013,01,21,12,28,4.30
2013,01,21,12,29,4.30
2013,01,21,12,30,4.40
2013,01,21,12,31,4.40
2013,01,21,12,32,4.40
2013,01,21,12,33,4.40
2013,01,21,12,34,4.40
2013,01,21,12,35,4.40
2013,01,21,12,36,4.40
2013,01,21,12,37,4.50
2013,01,21,12,38,4.50
2013,01,21,12,39,4.60
2013,01,21,12,40,4.60
2013,01,21,12,41,4.60
2013,01,21,12,42,4.60
2013,01,21,12,43,4.60
2013,01,21,12,44,4.60
2013,01,21,12,45,4.70
2013,01,21,12,46,4.70
2013,01,21,12,47,4.70
2013,01,21,12,48,4.70
2013,01,21,12,49,4.70
2013,01,21,12,50,4.70
2013,01,21,12,51,4.60
2013,01,21,12,52,4.60
2013,01,21,12,53,4.60
2013,01,21,12,54,4.60
2013,01,21,12,55,4.60
2013,01,21,12,56,4.60
2013,01,21,12,57,4.60
2013,01,21,12,58,4.60
2013,01,21,12,59,4.60
2013,01,21,13,00,4.60
2013,01,21,13,01,4.60
2013,01,21,13,02,4.60
2013,01,21,13,03,4.60
2013,01,21,13,04,4.60
2013,01,21,13,05,4.60
2013,01,21,13,06,4.60
2013,01,21,13,07,4.60
2013,01,21,13,08,4.60
2013,01,21,13,09,4.60
2013,01,21,13,10,4.60
2013,01,21,13,11,4.60
2013,01,21,13,12,4.70
2013,01,21,13,13,4.70
2013,01,21,13,14,4.70
2013,01,21,13,15,4.70
2013,01,21,13,16,4.80
2013,01,21,13,17,4.80
2013,01,21,13,18,4.80
2013,01,21,13,19,4.80
2013,01,21,13,20,4.90
2013,01,21,13,21,4.90
2013,01,21,13,22,4.90
2013,01,21,13,23,5.00
2013,01,21,13,24,5.00
2013,01,21,13,25,5.10
2013,01,21,13,26,5.10
2013,01,21,13,27,5.20
2013,01,21,13,28,5.20
2013,01,21,13,29,5.20
2013,01,21,13,30,5.30
2013,01,21,13,31,5.30
2013,01,21,13,32,5.40
2013,01,21,13,33,5.40
2013,01,21,13,34,5.50
2013,01,21,13,35,5.50
2013,01,21,13,36,5.60
2013,01,21,13,37,5.60
2013,01,21,13,38,5.70
2013,01,21,13,39,5.70
2013,01,21,13,40,5.70
2013,01,21,13,41,5.80
2013,01,21,13,42,5.80
2013,01,21,13,43,5.80
2013,01,21,13,44,5.90
2013,01,21,13,45,5.90
2013,01,21,13,46,5.90
2013,01,21,13,47,6.00
2013,01,21,13,48,6.00
2013,01,21,13,49,6.10
2013,01,21,13,50,6.10
2013,01,21,13,51,6.10
2013,01,21,13,52,6.20
2013,01,21,13,53,6.20
2013,01,21,13,54,6.20
2013,01,21,13,55,6.30
2013,01,21,13,56,6.30
2013,01,21,13,57,6.30
2013,01,21,13,58,6.30
2013,01,21,13,59,6.30
2013,01,21,14,00,6.40
2013,01,21,14,01,6.40
2013,01,21,14,02,6.40
2013,01,21,14,03,6.40
2013,01,21,14,04,6.50
2013,01,21,14,05,6.50
2013,01,21,14,06,6.50
2013,01,21,14,07,6.50
2013,01,21,14,08,6.50
2013,01,21,14,09,6.50
2013,01,21,14,10,6.40
2013,01,21,14,11,6.40
2013,01,21,14,12,6.40
2013,01,21,14,13,6.40
2013,01,21,14,14,6.40
2013,01,21,14,15,6.40
2013,01,21,14,16,6.40
2013,01,21,14,17,6.40
2013,01,21,14,18,6.40
2013,01,21,14,19,6.40
2013,01,21,14,20,6.30
2013,01,21,14,21,6.30
2013,01,21,14,22,6.30
2013,01,21,14,23,6.30
2013,01,21,14,24,6.30
2013,01,21,14,25,6.30
2013,01,21,14,26,6.20
2013,01,21,14,27,6.20
2013,01,21,14,28,6.10
2013,01,21,14,29,6.10
2013,01,21,14,30,6.00
2013,01,21,14,31,6.00
2013,01,21,14,32,5.90
2013,01,21,14,33,5.90
2013,01,21,14,34,5.90
2013,01,21,14,35,5.80
2013,01,21,14,36,5.80
2013,01,21,14,37,5.80
2013,01,21,14,38,5.80
2013,01,21,14,39,5.80
2013,01,21,14,40,5.80
2013,01,21,14,41,5.70
2013,01,21,14,42,5.70
2013,01,21,14,43,5.70
2013,01,21,14,44,5.70
2013,01,21,14,45,5.70
2013,01,21,14,46,5.70
2013,01,21,14,47,5.70
2013,01,21,14,48,5.70
2013,01,21,14,49,5.70
2013,01,21,14,50,5.70
2013,01,21,14,51,5.70
2013,01,21,14,52,5.70
2013,01,21,14,53,5.70
2013,01,21,14,54,5.70
2013,01,21,14,55,5.70
2013,01,21,14,56,5.70
2013,01,21,14,57,5.70
2013,01,21,14,58,5.70
2013,01,21,14,59,5.70
2013,01,21,15,00,5.70
2013,01,21,15,01,5.70
2013,01,21,15,02,5.70
2013,01,21,15,03,5.70
2013,01,21,15,04,5.70
2013,01,21,15,05,5.70
2013,01,21,15,06,5.60
2013,01,21,15,07,5.60
2013,01,21,15,08,5.60
2013,01,21,15,09,5.60
2013,01,21,15,10,5.70
2013,01,21,15,11,5.70
2013,01,21,15,12,5.70
2013,01,21,15,13,5.70
2013,01,21,15,14,5.70
2013,01,21,15,15,5.70
2013,01,21,15,16,5.70
2013,01,21,15,17,5.70
2013,01,21,15,18,5.70
2013,01,21,15,19,5.70
2013,01,21,15,20,5.70
2013,01,21,15,21,5.70
2013,01,21,15,22,5.70
2013,01,21,15,23,5.70
2013,01,21,15,24,5.70
2013,01,21,15,25,5.70
2013,01,21,15,26,5.80
2013,01,21,15,27,5.80
2013,01,21,15,28,5.80
2013,01,21,15,29,5.80
2013,01,21,15,30,5.90
2013,01,21,15,31,5.90
2013,01,21,15,32,6.00
2013,01,21,15,33,6.00
2013,01,21,15,34,6.10
2013,01,21,15,35,6.10
2013,01,21,15,36,6.20
2013,01,21,15,37,6.20
2013,01,21,15,38,6.20
2013,01,21,15,39,6.30
2013,01,21,15,40,6.30
2013,01,21,15,41,6.30
2013,01,21,15,42,6.40
2013,01,21,15,43,6.40
2013,01,21,15,44,6.40
2013,01,21,15,45,6.40
2013,01,21,15,46,6.50
2013,01,21,15,47,6.60
2013,01,21,15,48,6.60
2013,01,21,15,49,6.70
2013,01,21,15,50,6.70
2013,01,21,15,51,6.70
2013,01,21,15,52,6.70
2013,01,21,15,53,6.70
2013,01,21,15,54,6.60
2013,01,21,15,55,6.50
2013,01,21,15,56,6.50
2013,01,21,15,57,6.40
2013,01,21,15,58,6.40
2013,01,21,15,59,6.30
2013,01,21,16,00,6.30
2013,01,21,16,01,6.30
2013,01,21,16,02,6.30
2013,01,21,16,03,6.30
2013,01,21,16,04,6.30
2013,01,21,16,05,6.20
2013,01,21,16,06,6.20
2013,01,21,16,07,6.20
2013,01,21,16,08,6.20
2013,01,21,16,09,6.20
2013,01,21,16,10,6.10
2013,01,21,16,11,6.10
2013,01,21,16,12,6.10
2013,01,21,16,13,6.00
2013,01,21,16,14,6.00
2013,01,21,16,15,5.90
2013,01,21,16,16,5.90
2013,01,21,16,17,5.90
2013,01,21,16,18,5.80
2013,01,21,16,19,5.80
2013,01,21,16,20,5.70
2013,01,21,16,21,5.70
2013,01,21,16,22,5.70
2013,01,21,16,23,5.60
2013,01,21,16,24,5.60
2013,01,21,16,25,5.60
2013,01,21,16,26,5.50
2013,01,21,16,27,5.50
2013,01,21,16,28,5.40
2013,01,21,16,29,5.30
2013,01,21,16,30,5.30
2013,01,21,16,31,5.30
2013,01,21,16,32,5.20
2013,01,21,16,33,5.20
2013,01,21,16,34,5.10
2013,01,21,16,35,5.10
2013,01,21,16,36,5.00
2013,01,21,16,37,5.00
2013,01,21,16,38,5.00
2013,01,21,16,39,4.90
2013,01,21,16,40,4.90
2013,01,21,16,41,4.80
2013,01,21,16,42,4.80
2013,01,21,16,43,4.70
2013,01,21,16,44,4.70
2013,01,21,16,45,4.70
2013,01,21,16,46,4.60
2013,01,21,16,47,4.60
2013,01,21,16,48,4.60
2013,01,21,16,49,4.50
2013,01,21,16,50,4.50
2013,01,21,16,51,4.40
2013,01,21,16,52,4.40
2013,01,21,16,53,4.30
2013,01,21,16,54,4.30
2013,01,21,16,55,4.20
2013,01,21,16,56,4.20
2013,01,21,16,57,4.10
2013,01,21,16,58,4.00
2013,01,21,16,59,4.00
2013,01,21,17,00,3.90
2013,01,21,17,01,3.80
2013,01,21,17,02,3.80
2013,01,21,17,03,3.70
2013,01,21,17,04,3.60
2013,01,21,17,05,3.60
2013,01,21,17,06,3.50
2013,01,21,17,07,3.40
2013,01,21,17,08,3.40
2013,01,21,17,09,3.30
2013,01,21,17,10,3.30
2013,01,21,17,11,3.20
2013,01,21,17,12,3.20
2013,01,21,17,13,3.10
2013,01,21,17,14,3.10
2013,01,21,17,15,3.00
2013,01,21,17,16,3.00
2013,01,21,17,17,2.90
2013,01,21,17,18,2.90
2013,01,21,17,19,2.80
2013,01,21,17,20,2.80
2013,01,21,17,21,2.70
2013,01,21,17,22,2.70
2013,01,21,17,23,2.60
2013,01,21,17,24,2.60
2013,01,21,17,25,2.50
2013,01,21,17,26,2.50
2013,01,21,17,27,2.40
2013,01,21,17,28,2.40
2013,01,21,17,29,2.40
2013,01,21,17,30,2.30
2013,01,21,17,31,2.30
2013,01,21,17,32,2.30
2013,01,21,17,33,2.20
2013,01,21,17,34,2.20
2013,01,21,17,35,2.10
2013,01,21,17,36,2.10
2013,01,21,17,37,2.00
2013,01,21,17,38,2.00
2013,01,21,17,39,1.90
2013,01,21,17,40,1.90
2013,01,21,17,41,1.80
2013,01,21,17,42,1.80
2013,01,21,17,43,1.70
2013,01,21,17,44,1.70
2013,01,21,17,45,1.70
2013,01,21,17,46,1.60
2013,01,21,17,47,1.60
2013,01,21,17,48,1.60
2013,01,21,17,49,1.50
2013,01,21,17,50,1.50
2013,01,21,17,51,1.40
2013,01,21,17,52,1.40
2013,01,21,17,53,1.40
2013,01,21,17,54,1.30
2013,01,21,17,55,1.30
2013,01,21,17,56,1.30
2013,01,21,17,57,1.20
2013,01,21,17,58,1.20
2013,01,21,17,59,1.20
2013,01,21,18,00,1.10
2013,01,21,18,01,1.10
2013,01,21,18,02,1.10
2013,01,21,18,03,1.00
2013,01,21,18,04,1.00
2013,01,21,18,05,0.90
2013,01,21,18,06,0.90
2013,01,21,18,07,0.90
2013,01,21,18,08,0.90
2013,01,21,18,09,0.90
2013,01,21,18,10,0.80
2013,01,21,18,11,0.80
2013,01,21,18,12,0.80
2013,01,21,18,13,0.80
2013,01,21,18,14,0.80
2013,01,21,18,15,0.80
2013,01,21,18,16,0.70
2013,01,21,18,17,0.70
2013,01,21,18,18,0.70
2013,01,21,18,19,0.70
2013,01,21,18,20,0.70
2013,01,21,18,21,0.70
2013,01,21,18,22,0.70
2013,01,21,18,23,0.60
2013,01,21,18,24,0.60
2013,01,21,18,25,0.60
2013,01,21,18,26,0.50
2013,01,21,18,27,0.50
2013,01,21,18,28,0.50
2013,01,21,18,29,0.40
2013,01,21,18,30,0.40
2013,01,21,18,31,0.40
2013,01,21,18,32,0.40
2013,01,21,18,33,0.30
2013,01,21,18,34,0.30
2013,01,21,18,35,0.30
2013,01,21,18,36,0.30
2013,01,21,18,37,0.20
2013,01,21,18,38,0.20
2013,01,21,18,39,0.20
2013,01,21,18,40,0.20
2013,01,21,18,41,0.20
2013,01,21,18,42,0.10
2013,01,21,18,43,0.10
2013,01,21,18,44,0.10
2013,01,21,18,45,0.10
2013,01,21,18,46,0.10
2013,01,21,18,47,0.10
2013,01,21,18,48,0.10
2013,01,21,18,49,0.10
2013,01,21,18,50,0.10
2013,01,21,18,51,0.20
2013,01,21,18,52,0.20
2013,01,21,18,53,0.20
2013,01,21,18,54,0.20
2013,01,21,18,55,0.20
2013,01,21,18,56,0.20
2013,01,21,18,57,0.10
2013,01,21,18,58,0.10
2013,01,21,18,59,0.10
2013,01,21,19,00,0.10
2013,01,21,19,01,0.10
2013,01,21,19,02,0.00
2013,01,21,19,03,0.00
2013,01,21,19,04,0.00
2013,01,21,19,05,-0.10
2013,01,21,19,06,-0.10
2013,01,21,19,07,-0.10
2013,01,21,19,08,-0.20
2013,01,21,19,09,-0.20
2013,01,21,19,10,-0.20
2013,01,21,19,11,-0.20
2013,01,21,19,12,-0.30
2013,01,21,19,13,-0.30
2013,01,21,19,14,-0.30
2013,01,21,19,15,-0.30
2013,01,21,19,16,-0.40
2013,01,21,19,17,-0.40
2013,01,21,19,18,-0.40
2013,01,21,19,19,-0.40
2013,01,21,19,20,-0.50
2013,01,21,19,21,-0.50
2013,01,21,19,22,-0.50
2013,01,21,19,23,-0.50
2013,01,21,19,24,-0.60
2013,01,21,19,25,-0.60
2013,01,21,19,26,-0.60
2013,01,21,19,27,-0.60
2013,01,21,19,28,-0.60
2013,01,21,19,29,-0.70
2013,01,21,19,30,-0.70
2013,01,21,19,31,-0.70
2013,01,21,19,32,-0.70
2013,01,21,19,33,-0.70
2013,01,21,19,34,-0.70
2013,01,21,19,35,-0.80
2013,01,21,19,36,-0.80
2013,01,21,19,37,-0.80
2013,01,21,19,38,-0.80
2013,01,21,19,39,-0.80
2013,01,21,19,40,-0.80
2013,01,21,19,41,-0.90
2013,01,21,19,42,-0.90
2013,01,21,19,43,-0.90
2013,01,21,19,44,-0.90
2013,01,21,19,45,-0.90
2013,01,21,19,46,-1.00
2013,01,21,19,47,-1.00
2013,01,21,19,48,-1.00
2013,01,21,19,49,-1.10
2013,01,21,19,50,-1.10
2013,01,21,19,51,-1.10
2013,01,21,19,52,-1.10
2013,01,21,19,53,-1.20
2013,01,21,19,54,-1.20
2013,01,21,19,55,-1.20
2013,01,21,19,56,-1.20
2013,01,21,19,57,-1.20
2013,01,21,19,58,-1.30
2013,01,21,19,59,-1.30
2013,01,21,20,00,-1.30
2013,01,21,20,01,-1.30
2013,01,21,20,02,-1.30
2013,01,21,20,03,-1.30
2013,01,21,20,04,-1.30
2013,01,21,20,05,-1.30
2013,01,21,20,06,-1.30
2013,01,21,20,07,-1.40
2013,01,21,20,08,-1.40
2013,01,21,20,09,-1.40
2013,01,21,20,10,-1.40
2013,01,21,20,11,-1.40
2013,01,21,20,12,-1.40
2013,01,21,20,13,-1.40
2013,01,21,20,14,-1.50
2013,01,21,20,15,-1.50
2013,01,21,20,16,-1.50
2013,01,21,20,17,-1.50
2013,01,21,20,18,-1.60
2013,01,21,20,19,-1.60
2013,01,21,20,20,-1.60
2013,01,21,20,21,-1.60
2013,01,21,20,22,-1.60
2013,01,21,20,23,-1.60
2013,01,21,20,24,-1.70
2013,01,21,20,25,-1.70
2013,01,21,20,26,-1.70
2013,01,21,20,27,-1.70
2013,01,21,20,28,-1.70
2013,01,21,20,29,-1.70
2013,01,21,20,30,-1.70
2013,01,21,20,31,-1.70
2013,01,21,20,32,-1.70
2013,01,21,20,33,-1.70
2013,01,21,20,34,-1.70
2013,01,21,20,35,-1.70
2013,01,21,20,36,-1.70
2013,01,21,20,37,-1.80
2013,01,21,20,38,-1.80
2013,01,21,20,39,-1.80
2013,01,21,20,40,-1.80
2013,01,21,20,41,-1.80
2013,01,21,20,42,-1.80
2013,01,21,20,43,-1.80
2013,01,21,20,44,-1.80
2013,01,21,20,45,-1.80
2013,01,21,20,46,-1.80
2013,01,21,20,47,-1.80
2013,01,21,20,48,-1.90
2013,01,21,20,49,-1.90
2013,01,21,20,50,-1.90
2013,01,21,20,51,-1.90
2013,01,21,20,52,-1.90
2013,01,21,20,53,-1.90
2013,01,21,20,54,-2.00
2013,01,21,20,55,-2.00
2013,01,21,20,56,-2.00
2013,01,21,20,57,-2.00
2013,01,21,20,58,-2.10
2013,01,21,20,59,-2.10
2013,01,21,21,00,-2.10
2013,01,21,21,01,-2.10
2013,01,21,21,02,-2.10
2013,01,21,21,03,-2.10
2013,01,21,21,04,-2.10
2013,01,21,21,05,-2.20
2013,01,21,21,06,-2.20
2013,01,21,21,07,-2.20
2013,01,21,21,08,-2.20
2013,01,21,21,09,-2.20
2013,01,21,21,10,-2.20
2013,01,21,21,11,-2.20
2013,01,21,21,12,-2.20
2013,01,21,21,13,-2.20
2013,01,21,21,14,-2.20
2013,01,21,21,15,-2.30
2013,01,21,21,16,-2.30
2013,01,21,21,17,-2.30
2013,01,21,21,18,-2.30
2013,01,21,21,19,-2.30
2013,01,21,21,20,-2.30
2013,01,21,21,21,-2.30
2013,01,21,21,22,-2.30
2013,01,21,21,23,-2.30
2013,01,21,21,24,-2.30
2013,01,21,21,25,-2.30
2013,01,21,21,26,-2.30
2013,01,21,21,27,-2.30
2013,01,21,21,28,-2.30
2013,01,21,21,29,-2.20
2013,01,21,21,30,-2.20
2013,01,21,21,31,-2.20
2013,01,21,21,32,-2.20
2013,01,21,21,33,-2.20
2013,01,21,21,34,-2.20
2013,01,21,21,35,-2.20
2013,01,21,21,36,-2.20
2013,01,21,21,37,-2.20
2013,01,21,21,38,-2.20
2013,01,21,21,39,-2.20
2013,01,21,21,40,-2.20
2013,01,21,21,41,-2.30
2013,01,21,21,42,-2.30
2013,01,21,21,43,-2.30
2013,01,21,21,44,-2.30
2013,01,21,21,45,-2.30
2013,01,21,21,46,-2.30
2013,01,21,21,47,-2.30
2013,01,21,21,48,-2.30
2013,01,21,21,49,-2.30
2013,01,21,21,50,-2.30
2013,01,21,21,51,-2.40
2013,01,21,21,52,-2.40
2013,01,21,21,53,-2.40
2013,01,21,21,54,-2.40
2013,01,21,21,55,-2.40
2013,01,21,21,56,-2.40
2013,01,21,21,57,-2.40
2013,01,21,21,58,-2.40
2013,01,21,21,59,-2.40
2013,01,21,22,00,-2.40
2013,01,21,22,01,-2.40
2013,01,21,22,02,-2.40
2013,01,21,22,03,-2.40
2013,01,21,22,04,-2.40
